Year,Month,Day,Hour,Minute,Value (Times are PST for windspeed in km/hr)
2020,06,07,00,00,0.00
2020,06,07,00,01,0.00
2020,06,07,00,02,0.00
2020,06,07,00,03,0.00
2020,06,07,00,04,0.00
2020,06,07,00,05,2.60
2020,06,07,00,06,4.90
2020,06,07,00,07,0.40
2020,06,07,00,08,4.70
2020,06,07,00,09,3.10
2020,06,07,00,10,4.60
2020,06,07,00,11,2.20
2020,06,07,00,12,0.50
2020,06,07,00,13,0.70
2020,06,07,00,14,0.60
2020,06,07,00,15,0.50
2020,06,07,00,16,0.00
2020,06,07,00,17,0.30
2020,06,07,00,18,0.00
2020,06,07,00,19,0.80
2020,06,07,00,20,0.40
2020,06,07,00,21,0.00
2020,06,07,00,22,0.30
2020,06,07,00,23,0.40
2020,06,07,00,24,0.30
2020,06,07,00,25,0.00
2020,06,07,00,26,0.00
2020,06,07,00,27,0.50
2020,06,07,00,28,1.00
2020,06,07,00,29,0.00
2020,06,07,00,30,0.10
2020,06,07,00,31,0.80
2020,06,07,00,32,0.00
2020,06,07,00,33,0.00
2020,06,07,00,34,0.00
2020,06,07,00,35,0.00
2020,06,07,00,36,0.00
2020,06,07,00,37,0.60
2020,06,07,00,38,0.00
2020,06,07,00,39,0.00
2020,06,07,00,40,0.00
2020,06,07,00,41,0.30
2020,06,07,00,42,3.20
2020,06,07,00,43,1.50
2020,06,07,00,44,0.20
2020,06,07,00,45,0.10
2020,06,07,00,46,0.00
2020,06,07,00,47,0.00
2020,06,07,00,48,0.40
2020,06,07,00,49,0.50
2020,06,07,00,50,2.90
2020,06,07,00,51,2.50
2020,06,07,00,52,2.50
2020,06,07,00,53,5.00
2020,06,07,00,54,4.10
2020,06,07,00,55,1.10
2020,06,07,00,56,2.20
2020,06,07,00,57,2.40
2020,06,07,00,58,0.00
2020,06,07,00,59,0.80
2020,06,07,01,00,0.00
2020,06,07,01,01,0.00
2020,06,07,01,02,0.40
2020,06,07,01,03,0.20
2020,06,07,01,04,0.70
2020,06,07,01,05,0.00
2020,06,07,01,06,0.00
2020,06,07,01,07,0.00
2020,06,07,01,08,0.00
2020,06,07,01,09,0.30
2020,06,07,01,10,2.60
2020,06,07,01,11,0.00
2020,06,07,01,12,1.00
2020,06,07,01,13,0.00
2020,06,07,01,14,0.00
2020,06,07,01,15,2.90
2020,06,07,01,16,0.80
2020,06,07,01,17,0.70
2020,06,07,01,18,1.40
2020,06,07,01,19,0.10
2020,06,07,01,20,0.50
2020,06,07,01,21,0.00
2020,06,07,01,22,0.00
2020,06,07,01,23,0.00
2020,06,07,01,24,1.30
2020,06,07,01,25,0.00
2020,06,07,01,26,0.30
2020,06,07,01,27,0.00
2020,06,07,01,28,0.80
2020,06,07,01,29,0.70
2020,06,07,01,30,1.30
2020,06,07,01,31,1.10
2020,06,07,01,32,0.80
2020,06,07,01,33,0.30
2020,06,07,01,34,0.00
2020,06,07,01,35,0.70
2020,06,07,01,36,0.00
2020,06,07,01,37,0.40
2020,06,07,01,38,0.00
2020,06,07,01,39,0.00
2020,06,07,01,40,0.00
2020,06,07,01,41,0.10
2020,06,07,01,42,0.70
2020,06,07,01,43,0.50
2020,06,07,01,44,1.90
2020,06,07,01,45,3.40
2020,06,07,01,46,0.70
2020,06,07,01,47,0.60
2020,06,07,01,48,3.00
2020,06,07,01,49,0.20
2020,06,07,01,50,0.00
2020,06,07,01,51,1.40
2020,06,07,01,52,4.70
2020,06,07,01,53,0.00
2020,06,07,01,54,0.40
2020,06,07,01,55,2.90
2020,06,07,01,56,1.30
2020,06,07,01,57,0.30
2020,06,07,01,58,1.90
2020,06,07,01,59,0.20
2020,06,07,02,00,0.00
2020,06,07,02,01,0.40
2020,06,07,02,02,2.40
2020,06,07,02,03,0.80
2020,06,07,02,04,0.00
2020,06,07,02,05,0.20
2020,06,07,02,06,0.20
2020,06,07,02,07,0.40
2020,06,07,02,08,0.30
2020,06,07,02,09,0.80
2020,06,07,02,10,0.00
2020,06,07,02,11,0.00
2020,06,07,02,12,1.50
2020,06,07,02,13,0.00
2020,06,07,02,14,0.00
2020,06,07,02,15,0.30
2020,06,07,02,16,0.90
2020,06,07,02,17,0.50
2020,06,07,02,18,1.80
2020,06,07,02,19,2.70
2020,06,07,02,20,0.60
2020,06,07,02,21,0.60
2020,06,07,02,22,1.70
2020,06,07,02,23,2.60
2020,06,07,02,24,0.50
2020,06,07,02,25,0.00
2020,06,07,02,26,0.10
2020,06,07,02,27,1.50
2020,06,07,02,28,0.60
2020,06,07,02,29,1.60
2020,06,07,02,30,0.80
2020,06,07,02,31,0.00
2020,06,07,02,32,0.20
2020,06,07,02,33,0.40
2020,06,07,02,34,0.80
2020,06,07,02,35,0.20
2020,06,07,02,36,0.90
2020,06,07,02,37,0.50
2020,06,07,02,38,3.10
2020,06,07,02,39,0.10
2020,06,07,02,40,0.40
2020,06,07,02,41,2.30
2020,06,07,02,42,1.70
2020,06,07,02,43,1.90
2020,06,07,02,44,1.90
2020,06,07,02,45,1.30
2020,06,07,02,46,1.60
2020,06,07,02,47,0.40
2020,06,07,02,48,1.70
2020,06,07,02,49,0.80
2020,06,07,02,50,1.90
2020,06,07,02,51,5.70
2020,06,07,02,52,2.50
2020,06,07,02,53,0.00
2020,06,07,02,54,2.50
2020,06,07,02,55,0.80
2020,06,07,02,56,0.50
2020,06,07,02,57,5.30
2020,06,07,02,58,4.20
2020,06,07,02,59,4.50
2020,06,07,03,00,4.00
2020,06,07,03,01,7.60
2020,06,07,03,02,7.80
2020,06,07,03,03,8.60
2020,06,07,03,04,6.10
2020,06,07,03,05,8.80
2020,06,07,03,06,3.00
2020,06,07,03,07,4.30
2020,06,07,03,08,2.50
2020,06,07,03,09,5.50
2020,06,07,03,10,5.00
2020,06,07,03,11,1.90
2020,06,07,03,12,1.80
2020,06,07,03,13,3.60
2020,06,07,03,14,4.10
2020,06,07,03,15,1.90
2020,06,07,03,16,7.20
2020,06,07,03,17,2.30
2020,06,07,03,18,1.30
2020,06,07,03,19,1.30
2020,06,07,03,20,1.30
2020,06,07,03,21,2.50
2020,06,07,03,22,1.70
2020,06,07,03,23,0.00
2020,06,07,03,24,0.30
2020,06,07,03,25,8.10
2020,06,07,03,26,5.30
2020,06,07,03,27,0.20
2020,06,07,03,28,2.10
2020,06,07,03,29,2.30
2020,06,07,03,30,2.70
2020,06,07,03,31,2.30
2020,06,07,03,32,0.90
2020,06,07,03,33,1.60
2020,06,07,03,34,1.80
2020,06,07,03,35,4.60
2020,06,07,03,36,3.10
2020,06,07,03,37,3.30
2020,06,07,03,38,4.70
2020,06,07,03,39,1.60
2020,06,07,03,40,0.60
2020,06,07,03,41,0.70
2020,06,07,03,42,2.90
2020,06,07,03,43,0.80
2020,06,07,03,44,1.70
2020,06,07,03,45,4.50
2020,06,07,03,46,4.50
2020,06,07,03,47,2.00
2020,06,07,03,48,0.30
2020,06,07,03,49,3.30
2020,06,07,03,50,1.90
2020,06,07,03,51,5.90
2020,06,07,03,52,5.70
2020,06,07,03,53,1.10
2020,06,07,03,54,4.10
2020,06,07,03,55,4.70
2020,06,07,03,56,4.50
2020,06,07,03,57,0.70
2020,06,07,03,58,1.50
2020,06,07,03,59,2.50
2020,06,07,04,00,4.60
2020,06,07,04,01,5.20
2020,06,07,04,02,3.00
2020,06,07,04,03,2.80
2020,06,07,04,04,4.00
2020,06,07,04,05,3.40
2020,06,07,04,06,3.60
2020,06,07,04,07,3.60
2020,06,07,04,08,3.70
2020,06,07,04,09,5.80
2020,06,07,04,10,5.10
2020,06,07,04,11,5.20
2020,06,07,04,12,3.50
2020,06,07,04,13,4.90
2020,06,07,04,14,2.00
2020,06,07,04,15,1.20
2020,06,07,04,16,4.30
2020,06,07,04,17,1.80
2020,06,07,04,18,0.70
2020,06,07,04,19,2.70
2020,06,07,04,20,2.20
2020,06,07,04,21,2.60
2020,06,07,04,22,3.20
2020,06,07,04,23,0.60
2020,06,07,04,24,4.20
2020,06,07,04,25,5.60
2020,06,07,04,26,7.60
2020,06,07,04,27,1.80
2020,06,07,04,28,4.30
2020,06,07,04,29,5.20
2020,06,07,04,30,3.40
2020,06,07,04,31,4.60
2020,06,07,04,32,4.50
2020,06,07,04,33,4.90
2020,06,07,04,34,6.90
2020,06,07,04,35,5.20
2020,06,07,04,36,3.80
2020,06,07,04,37,6.90
2020,06,07,04,38,9.80
2020,06,07,04,39,7.50
2020,06,07,04,40,5.90
2020,06,07,04,41,6.60
2020,06,07,04,42,5.20
2020,06,07,04,43,9.40
2020,06,07,04,44,4.20
2020,06,07,04,45,8.00
2020,06,07,04,46,4.90
2020,06,07,04,47,7.60
2020,06,07,04,48,7.00
2020,06,07,04,49,6.20
2020,06,07,04,50,1.90
2020,06,07,04,51,2.50
2020,06,07,04,52,5.10
2020,06,07,04,53,3.50
2020,06,07,04,54,5.30
2020,06,07,04,55,2.70
2020,06,07,04,56,2.40
2020,06,07,04,57,0.00
2020,06,07,04,58,2.20
2020,06,07,04,59,3.40
2020,06,07,05,00,5.20
2020,06,07,05,01,6.10
2020,06,07,05,02,3.70
2020,06,07,05,03,5.00
2020,06,07,05,04,3.00
2020,06,07,05,05,3.40
2020,06,07,05,06,3.00
2020,06,07,05,07,5.30
2020,06,07,05,08,0.80
2020,06,07,05,09,5.30
2020,06,07,05,10,1.90
2020,06,07,05,11,3.60
2020,06,07,05,12,3.60
2020,06,07,05,13,1.50
2020,06,07,05,14,3.60
2020,06,07,05,15,4.10
2020,06,07,05,16,1.70
2020,06,07,05,17,3.30
2020,06,07,05,18,1.50
2020,06,07,05,19,3.00
2020,06,07,05,20,6.30
2020,06,07,05,21,4.00
2020,06,07,05,22,3.20
2020,06,07,05,23,2.30
2020,06,07,05,24,0.20
2020,06,07,05,25,0.00
2020,06,07,05,26,1.90
2020,06,07,05,27,1.20
2020,06,07,05,28,0.60
2020,06,07,05,29,0.80
2020,06,07,05,30,2.00
2020,06,07,05,31,2.60
2020,06,07,05,32,5.10
2020,06,07,05,33,5.40
2020,06,07,05,34,1.90
2020,06,07,05,35,0.80
2020,06,07,05,36,3.70
2020,06,07,05,37,1.40
2020,06,07,05,38,1.80
2020,06,07,05,39,5.20
2020,06,07,05,40,4.40
2020,06,07,05,41,4.90
2020,06,07,05,42,2.00
2020,06,07,05,43,8.10
2020,06,07,05,44,3.10
2020,06,07,05,45,4.20
2020,06,07,05,46,4.60
2020,06,07,05,47,3.60
2020,06,07,05,48,1.50
2020,06,07,05,49,0.00
2020,06,07,05,50,1.90
2020,06,07,05,51,5.20
2020,06,07,05,52,5.10
2020,06,07,05,53,0.90
2020,06,07,05,54,3.60
2020,06,07,05,55,1.90
2020,06,07,05,56,7.10
2020,06,07,05,57,0.20
2020,06,07,05,58,1.50
2020,06,07,05,59,0.40
2020,06,07,06,00,4.80
2020,06,07,06,01,2.30
2020,06,07,06,02,8.60
2020,06,07,06,03,1.90
2020,06,07,06,04,0.80
2020,06,07,06,05,2.30
2020,06,07,06,06,0.80
2020,06,07,06,07,3.10
2020,06,07,06,08,5.30
2020,06,07,06,09,2.40
2020,06,07,06,10,4.60
2020,06,07,06,11,2.50
2020,06,07,06,12,1.50
2020,06,07,06,13,2.40
2020,06,07,06,14,2.70
2020,06,07,06,15,5.30
2020,06,07,06,16,4.00
2020,06,07,06,17,2.20
2020,06,07,06,18,0.70
2020,06,07,06,19,5.40
2020,06,07,06,20,1.10
2020,06,07,06,21,2.60
2020,06,07,06,22,3.00
2020,06,07,06,23,3.90
2020,06,07,06,24,3.30
2020,06,07,06,25,2.50
2020,06,07,06,26,2.80
2020,06,07,06,27,0.80
2020,06,07,06,28,3.90
2020,06,07,06,29,2.40
2020,06,07,06,30,3.50
2020,06,07,06,31,1.60
2020,06,07,06,32,1.40
2020,06,07,06,33,3.40
2020,06,07,06,34,4.80
2020,06,07,06,35,0.10
2020,06,07,06,36,1.90
2020,06,07,06,37,3.40
2020,06,07,06,38,2.40
2020,06,07,06,39,0.10
2020,06,07,06,40,1.60
2020,06,07,06,41,1.00
2020,06,07,06,42,4.30
2020,06,07,06,43,3.00
2020,06,07,06,44,2.50
2020,06,07,06,45,3.20
2020,06,07,06,46,7.40
2020,06,07,06,47,3.50
2020,06,07,06,48,6.00
2020,06,07,06,49,1.40
2020,06,07,06,50,3.80
2020,06,07,06,51,6.50
2020,06,07,06,52,5.30
2020,06,07,06,53,2.70
2020,06,07,06,54,3.90
2020,06,07,06,55,4.00
2020,06,07,06,56,7.00
2020,06,07,06,57,2.50
2020,06,07,06,58,3.80
2020,06,07,06,59,1.40
2020,06,07,07,00,0.60
2020,06,07,07,01,6.70
2020,06,07,07,02,6.10
2020,06,07,07,03,2.50
2020,06,07,07,04,2.40
2020,06,07,07,05,1.70
2020,06,07,07,06,3.10
2020,06,07,07,07,5.30
2020,06,07,07,08,4.50
2020,06,07,07,09,3.10
2020,06,07,07,10,3.10
2020,06,07,07,11,0.70
2020,06,07,07,12,0.00
2020,06,07,07,13,0.80
2020,06,07,07,14,3.10
2020,06,07,07,15,3.90
2020,06,07,07,16,5.60
2020,06,07,07,17,6.20
2020,06,07,07,18,1.80
2020,06,07,07,19,0.80
2020,06,07,07,20,0.70
2020,06,07,07,21,0.90
2020,06,07,07,22,0.00
2020,06,07,07,23,1.80
2020,06,07,07,24,0.80
2020,06,07,07,25,2.00
2020,06,07,07,26,2.70
2020,06,07,07,27,4.50
2020,06,07,07,28,4.50
2020,06,07,07,29,0.00
2020,06,07,07,30,3.40
2020,06,07,07,31,1.10
2020,06,07,07,32,2.60
2020,06,07,07,33,2.10
2020,06,07,07,34,0.50
2020,06,07,07,35,1.40
2020,06,07,07,36,1.40
2020,06,07,07,37,3.70
2020,06,07,07,38,1.80
2020,06,07,07,39,3.10
2020,06,07,07,40,3.20
2020,06,07,07,41,1.30
2020,06,07,07,42,4.10
2020,06,07,07,43,2.90
2020,06,07,07,44,5.30
2020,06,07,07,45,2.10
2020,06,07,07,46,6.40
2020,06,07,07,47,8.10
2020,06,07,07,48,5.00
2020,06,07,07,49,7.40
2020,06,07,07,50,7.70
2020,06,07,07,51,3.80
2020,06,07,07,52,3.40
2020,06,07,07,53,4.40
2020,06,07,07,54,3.00
2020,06,07,07,55,0.40
2020,06,07,07,56,1.90
2020,06,07,07,57,6.10
2020,06,07,07,58,1.50
2020,06,07,07,59,0.50
2020,06,07,08,00,4.00
2020,06,07,08,01,1.70
2020,06,07,08,02,0.30
2020,06,07,08,03,1.40
2020,06,07,08,04,0.40
2020,06,07,08,05,1.50
2020,06,07,08,06,0.10
2020,06,07,08,07,3.50
2020,06,07,08,08,1.00
2020,06,07,08,09,2.60
2020,06,07,08,10,3.70
2020,06,07,08,11,4.50
2020,06,07,08,12,7.80
2020,06,07,08,13,5.40
2020,06,07,08,14,5.30
2020,06,07,08,15,4.80
2020,06,07,08,16,6.50
2020,06,07,08,17,6.70
2020,06,07,08,18,3.60
2020,06,07,08,19,5.60
2020,06,07,08,20,2.50
2020,06,07,08,21,5.20
2020,06,07,08,22,4.70
2020,06,07,08,23,4.50
2020,06,07,08,24,6.90
2020,06,07,08,25,3.80
2020,06,07,08,26,3.40
2020,06,07,08,27,7.50
2020,06,07,08,28,7.90
2020,06,07,08,29,10.80
2020,06,07,08,30,3.00
2020,06,07,08,31,3.60
2020,06,07,08,32,6.90
2020,06,07,08,33,3.20
2020,06,07,08,34,7.60
2020,06,07,08,35,4.00
2020,06,07,08,36,12.20
2020,06,07,08,37,12.10
2020,06,07,08,38,7.30
2020,06,07,08,39,10.80
2020,06,07,08,40,12.70
2020,06,07,08,41,5.60
2020,06,07,08,42,6.40
2020,06,07,08,43,5.00
2020,06,07,08,44,6.30
2020,06,07,08,45,2.00
2020,06,07,08,46,5.10
2020,06,07,08,47,5.20
2020,06,07,08,48,2.00
2020,06,07,08,49,2.10
2020,06,07,08,50,1.60
2020,06,07,08,51,2.60
2020,06,07,08,52,3.60
2020,06,07,08,53,3.90
2020,06,07,08,54,1.20
2020,06,07,08,55,7.90
2020,06,07,08,56,6.90
2020,06,07,08,57,7.80
2020,06,07,08,58,9.70
2020,06,07,08,59,11.10
2020,06,07,09,00,6.00
2020,06,07,09,01,2.60
2020,06,07,09,02,3.70
2020,06,07,09,03,3.70
2020,06,07,09,04,3.00
2020,06,07,09,05,0.80
2020,06,07,09,06,1.70
2020,06,07,09,07,4.00
2020,06,07,09,08,5.40
2020,06,07,09,09,2.70
2020,06,07,09,10,4.10
2020,06,07,09,11,4.00
2020,06,07,09,12,4.80
2020,06,07,09,13,4.50
2020,06,07,09,14,1.90
2020,06,07,09,15,2.80
2020,06,07,09,16,2.50
2020,06,07,09,17,4.00
2020,06,07,09,18,1.80
2020,06,07,09,19,3.40
2020,06,07,09,20,4.60
2020,06,07,09,21,0.60
2020,06,07,09,22,4.80
2020,06,07,09,23,8.70
2020,06,07,09,24,3.80
2020,06,07,09,25,4.50
2020,06,07,09,26,6.90
2020,06,07,09,27,0.50
2020,06,07,09,28,2.70
2020,06,07,09,29,3.80
2020,06,07,09,30,3.30
2020,06,07,09,31,7.70
2020,06,07,09,32,3.00
2020,06,07,09,33,2.40
2020,06,07,09,34,7.00
2020,06,07,09,35,5.30
2020,06,07,09,36,3.30
2020,06,07,09,37,4.30
2020,06,07,09,38,10.60
2020,06,07,09,39,3.60
2020,06,07,09,40,0.90
2020,06,07,09,41,3.10
2020,06,07,09,42,7.10
2020,06,07,09,43,1.40
2020,06,07,09,44,0.40
2020,06,07,09,45,9.20
2020,06,07,09,46,10.80
2020,06,07,09,47,12.90
2020,06,07,09,48,12.10
2020,06,07,09,49,9.50
2020,06,07,09,50,5.50
2020,06,07,09,51,6.80
2020,06,07,09,52,3.90
2020,06,07,09,53,10.10
2020,06,07,09,54,10.40
2020,06,07,09,55,14.50
2020,06,07,09,56,6.60
2020,06,07,09,57,7.10
2020,06,07,09,58,5.50
2020,06,07,09,59,3.60
2020,06,07,10,00,1.90
2020,06,07,10,01,2.20
2020,06,07,10,02,8.60
2020,06,07,10,03,8.50
2020,06,07,10,04,4.70
2020,06,07,10,05,2.50
2020,06,07,10,06,1.80
2020,06,07,10,07,3.30
2020,06,07,10,08,1.20
2020,06,07,10,09,1.40
2020,06,07,10,10,5.70
2020,06,07,10,11,4.20
2020,06,07,10,12,4.80
2020,06,07,10,13,13.10
2020,06,07,10,14,12.50
2020,06,07,10,15,3.60
2020,06,07,10,16,5.10
2020,06,07,10,17,7.20
2020,06,07,10,18,10.20
2020,06,07,10,19,11.10
2020,06,07,10,20,6.00
2020,06,07,10,21,6.50
2020,06,07,10,22,5.90
2020,06,07,10,23,3.90
2020,06,07,10,24,4.20
2020,06,07,10,25,8.60
2020,06,07,10,26,10.10
2020,06,07,10,27,11.10
2020,06,07,10,28,8.30
2020,06,07,10,29,8.50
2020,06,07,10,30,6.10
2020,06,07,10,31,6.40
2020,06,07,10,32,8.50
2020,06,07,10,33,2.80
2020,06,07,10,34,11.40
2020,06,07,10,35,3.70
2020,06,07,10,36,2.80
2020,06,07,10,37,4.20
2020,06,07,10,38,7.80
2020,06,07,10,39,8.90
2020,06,07,10,40,4.30
2020,06,07,10,41,10.30
2020,06,07,10,42,8.00
2020,06,07,10,43,10.30
2020,06,07,10,44,9.30
2020,06,07,10,45,7.50
2020,06,07,10,46,6.60
2020,06,07,10,47,13.10
2020,06,07,10,48,7.90
2020,06,07,10,49,7.50
2020,06,07,10,50,13.70
2020,06,07,10,51,15.90
2020,06,07,10,52,8.80
2020,06,07,10,53,9.10
2020,06,07,10,54,11.50
2020,06,07,10,55,10.50
2020,06,07,10,56,11.90
2020,06,07,10,57,16.10
2020,06,07,10,58,9.20
2020,06,07,10,59,15.90
2020,06,07,11,00,13.70
2020,06,07,11,01,8.60
2020,06,07,11,02,7.50
2020,06,07,11,03,3.80
2020,06,07,11,04,4.10
2020,06,07,11,05,8.10
2020,06,07,11,06,6.00
2020,06,07,11,07,19.90
2020,06,07,11,08,14.40
2020,06,07,11,09,10.00
2020,06,07,11,10,6.30
2020,06,07,11,11,9.70
2020,06,07,11,12,14.10
2020,06,07,11,13,10.80
2020,06,07,11,14,8.10
2020,06,07,11,15,12.10
2020,06,07,11,16,7.00
2020,06,07,11,17,6.60
2020,06,07,11,18,5.50
2020,06,07,11,19,12.00
2020,06,07,11,20,7.10
2020,06,07,11,21,15.40
2020,06,07,11,22,18.30
2020,06,07,11,23,20.40
2020,06,07,11,24,10.00
2020,06,07,11,25,6.10
2020,06,07,11,26,16.30
2020,06,07,11,27,8.90
2020,06,07,11,28,12.80
2020,06,07,11,29,17.60
2020,06,07,11,30,14.70
2020,06,07,11,31,14.90
2020,06,07,11,32,14.20
2020,06,07,11,33,16.50
2020,06,07,11,34,20.70
2020,06,07,11,35,17.10
2020,06,07,11,36,11.50
2020,06,07,11,37,13.00
2020,06,07,11,38,10.40
2020,06,07,11,39,9.20
2020,06,07,11,40,11.10
2020,06,07,11,41,19.60
2020,06,07,11,42,11.20
2020,06,07,11,43,16.70
2020,06,07,11,44,12.30
2020,06,07,11,45,19.00
2020,06,07,11,46,15.20
2020,06,07,11,47,23.30
2020,06,07,11,48,15.50
2020,06,07,11,49,22.40
2020,06,07,11,50,20.10
2020,06,07,11,51,20.40
2020,06,07,11,52,21.60
2020,06,07,11,53,14.60
2020,06,07,11,54,14.50
2020,06,07,11,55,13.30
2020,06,07,11,56,13.80
2020,06,07,11,57,14.40
2020,06,07,11,58,17.20
2020,06,07,11,59,15.60
2020,06,07,12,00,14.20
2020,06,07,12,01,6.50
2020,06,07,12,02,15.40
2020,06,07,12,03,19.70
2020,06,07,12,04,18.30
2020,06,07,12,05,18.90
2020,06,07,12,06,15.50
2020,06,07,12,07,19.20
2020,06,07,12,08,11.00
2020,06,07,12,09,14.10
2020,06,07,12,10,18.00
2020,06,07,12,11,16.60
2020,06,07,12,12,12.70
2020,06,07,12,13,4.70
2020,06,07,12,14,7.40
2020,06,07,12,15,6.10
2020,06,07,12,16,7.10
2020,06,07,12,17,15.80
2020,06,07,12,18,17.80
2020,06,07,12,19,14.20
2020,06,07,12,20,14.00
2020,06,07,12,21,21.20
2020,06,07,12,22,14.60
2020,06,07,12,23,16.10
2020,06,07,12,24,13.50
2020,06,07,12,25,14.00
2020,06,07,12,26,11.40
2020,06,07,12,27,9.90
2020,06,07,12,28,11.80
2020,06,07,12,29,16.10
2020,06,07,12,30,16.80
2020,06,07,12,31,15.30
2020,06,07,12,32,17.90
2020,06,07,12,33,16.80
2020,06,07,12,34,16.70
2020,06,07,12,35,15.20
2020,06,07,12,36,13.80
2020,06,07,12,37,26.00
2020,06,07,12,38,22.10
2020,06,07,12,39,17.80
2020,06,07,12,40,20.30
2020,06,07,12,41,18.10
2020,06,07,12,42,11.70
2020,06,07,12,43,14.40
2020,06,07,12,44,9.60
2020,06,07,12,45,11.10
2020,06,07,12,46,17.00
2020,06,07,12,47,8.90
2020,06,07,12,48,15.80
2020,06,07,12,49,12.10
2020,06,07,12,50,11.30
2020,06,07,12,51,12.10
2020,06,07,12,52,11.20
2020,06,07,12,53,12.40
2020,06,07,12,54,12.50
2020,06,07,12,55,17.60
2020,06,07,12,56,14.80
2020,06,07,12,57,15.70
2020,06,07,12,58,14.00
2020,06,07,12,59,10.00
2020,06,07,13,00,11.50
2020,06,07,13,01,7.10
2020,06,07,13,02,11.50
2020,06,07,13,03,12.40
2020,06,07,13,04,7.90
2020,06,07,13,05,9.80
2020,06,07,13,06,8.70
2020,06,07,13,07,10.00
2020,06,07,13,08,16.40
2020,06,07,13,09,18.80
2020,06,07,13,10,17.10
2020,06,07,13,11,10.10
2020,06,07,13,12,22.80
2020,06,07,13,13,16.10
2020,06,07,13,14,13.00
2020,06,07,13,15,21.40
2020,06,07,13,16,17.70
2020,06,07,13,17,13.70
2020,06,07,13,18,14.10
2020,06,07,13,19,8.10
2020,06,07,13,20,15.50
2020,06,07,13,21,11.70
2020,06,07,13,22,12.70
2020,06,07,13,23,9.10
2020,06,07,13,24,12.60
2020,06,07,13,25,20.80
2020,06,07,13,26,17.40
2020,06,07,13,27,14.30
2020,06,07,13,28,13.00
2020,06,07,13,29,11.10
2020,06,07,13,30,20.10
2020,06,07,13,31,21.80
2020,06,07,13,32,17.10
2020,06,07,13,33,12.70
2020,06,07,13,34,9.70
2020,06,07,13,35,13.60
2020,06,07,13,36,8.90
2020,06,07,13,37,6.10
2020,06,07,13,38,14.60
2020,06,07,13,39,12.60
2020,06,07,13,40,13.00
2020,06,07,13,41,11.80
2020,06,07,13,42,5.20
2020,06,07,13,43,17.80
2020,06,07,13,44,13.70
2020,06,07,13,45,11.40
2020,06,07,13,46,15.30
2020,06,07,13,47,12.90
2020,06,07,13,48,14.10
2020,06,07,13,49,22.80
2020,06,07,13,50,22.50
2020,06,07,13,51,13.60
2020,06,07,13,52,12.90
2020,06,07,13,53,18.00
2020,06,07,13,54,18.70
2020,06,07,13,55,17.60
2020,06,07,13,56,26.60
2020,06,07,13,57,15.50
2020,06,07,13,58,15.30
2020,06,07,13,59,23.70
2020,06,07,14,00,22.40
2020,06,07,14,01,17.50
2020,06,07,14,02,18.80
2020,06,07,14,03,15.10
2020,06,07,14,04,11.50
2020,06,07,14,05,17.10
2020,06,07,14,06,10.30
2020,06,07,14,07,14.90
2020,06,07,14,08,21.10
2020,06,07,14,09,15.70
2020,06,07,14,10,11.00
2020,06,07,14,11,12.00
2020,06,07,14,12,10.40
2020,06,07,14,13,8.70
2020,06,07,14,14,19.10
2020,06,07,14,15,14.10
2020,06,07,14,16,16.50
2020,06,07,14,17,13.80
2020,06,07,14,18,5.50
2020,06,07,14,19,8.20
2020,06,07,14,20,18.60
2020,06,07,14,21,12.00
2020,06,07,14,22,6.30
2020,06,07,14,23,18.50
2020,06,07,14,24,19.10
2020,06,07,14,25,26.50
2020,06,07,14,26,16.00
2020,06,07,14,27,18.70
2020,06,07,14,28,22.00
2020,06,07,14,29,24.50
2020,06,07,14,30,22.60
2020,06,07,14,31,14.50
2020,06,07,14,32,18.90
2020,06,07,14,33,17.60
2020,06,07,14,34,18.20
2020,06,07,14,35,24.60
2020,06,07,14,36,18.00
2020,06,07,14,37,20.00
2020,06,07,14,38,19.40
2020,06,07,14,39,14.90
2020,06,07,14,40,9.70
2020,06,07,14,41,20.40
2020,06,07,14,42,18.10
2020,06,07,14,43,20.20
2020,06,07,14,44,26.90
2020,06,07,14,45,16.90
2020,06,07,14,46,23.60
2020,06,07,14,47,15.80
2020,06,07,14,48,18.30
2020,06,07,14,49,15.60
2020,06,07,14,50,23.70
2020,06,07,14,51,17.60
2020,06,07,14,52,19.10
2020,06,07,14,53,20.70
2020,06,07,14,54,22.40
2020,06,07,14,55,15.60
2020,06,07,14,56,17.40
2020,06,07,14,57,16.20
2020,06,07,14,58,11.90
2020,06,07,14,59,12.90
2020,06,07,15,00,20.70
2020,06,07,15,01,22.60
2020,06,07,15,02,11.60
2020,06,07,15,03,20.80
2020,06,07,15,04,22.50
2020,06,07,15,05,20.10
2020,06,07,15,06,23.70
2020,06,07,15,07,19.20
2020,06,07,15,08,13.60
2020,06,07,15,09,17.40
2020,06,07,15,10,20.20
2020,06,07,15,11,18.80
2020,06,07,15,12,11.70
2020,06,07,15,13,13.40
2020,06,07,15,14,19.20
2020,06,07,15,15,18.50
2020,06,07,15,16,15.70
2020,06,07,15,17,20.00
2020,06,07,15,18,30.20
2020,06,07,15,19,22.40
2020,06,07,15,20,25.80
2020,06,07,15,21,22.40
2020,06,07,15,22,18.60
2020,06,07,15,23,18.50
2020,06,07,15,24,17.20
2020,06,07,15,25,13.20
2020,06,07,15,26,9.60
2020,06,07,15,27,11.50
2020,06,07,15,28,4.10
2020,06,07,15,29,9.00
2020,06,07,15,30,8.90
2020,06,07,15,31,11.10
2020,06,07,15,32,11.60
2020,06,07,15,33,12.20
2020,06,07,15,34,12.30
2020,06,07,15,35,15.80
2020,06,07,15,36,10.90
2020,06,07,15,37,12.90
2020,06,07,15,38,12.00
2020,06,07,15,39,3.20
2020,06,07,15,40,22.50
2020,06,07,15,41,21.60
2020,06,07,15,42,12.50
2020,06,07,15,43,13.40
2020,06,07,15,44,22.90
2020,06,07,15,45,17.80
2020,06,07,15,46,18.50
2020,06,07,15,47,27.50
2020,06,07,15,48,17.30
2020,06,07,15,49,16.40
2020,06,07,15,50,18.00
2020,06,07,15,51,24.50
2020,06,07,15,52,25.70
2020,06,07,15,53,16.20
2020,06,07,15,54,15.60
2020,06,07,15,55,15.10
2020,06,07,15,56,21.70
2020,06,07,15,57,19.30
2020,06,07,15,58,20.90
2020,06,07,15,59,16.10
2020,06,07,16,00,15.10
2020,06,07,16,01,16.10
2020,06,07,16,02,7.30
2020,06,07,16,03,18.60
2020,06,07,16,04,19.20
2020,06,07,16,05,23.00
2020,06,07,16,06,20.50
2020,06,07,16,07,20.50
2020,06,07,16,08,19.20
2020,06,07,16,09,12.60
2020,06,07,16,10,24.20
2020,06,07,16,11,23.20
2020,06,07,16,12,18.40
2020,06,07,16,13,17.90
2020,06,07,16,14,19.70
2020,06,07,16,15,19.60
2020,06,07,16,16,20.30
2020,06,07,16,17,23.50
2020,06,07,16,18,24.60
2020,06,07,16,19,23.80
2020,06,07,16,20,19.70
2020,06,07,16,21,19.10
2020,06,07,16,22,12.40
2020,06,07,16,23,14.30
2020,06,07,16,24,17.80
2020,06,07,16,25,10.10
2020,06,07,16,26,16.40
2020,06,07,16,27,8.20
2020,06,07,16,28,22.70
2020,06,07,16,29,16.90
2020,06,07,16,30,19.80
2020,06,07,16,31,18.70
2020,06,07,16,32,20.10
2020,06,07,16,33,22.40
2020,06,07,16,34,18.00
2020,06,07,16,35,18.50
2020,06,07,16,36,12.50
2020,06,07,16,37,14.20
2020,06,07,16,38,23.90
2020,06,07,16,39,17.50
2020,06,07,16,40,14.20
2020,06,07,16,41,14.70
2020,06,07,16,42,11.30
2020,06,07,16,43,15.50
2020,06,07,16,44,13.80
2020,06,07,16,45,12.00
2020,06,07,16,46,12.90
2020,06,07,16,47,15.20
2020,06,07,16,48,13.00
2020,06,07,16,49,23.20
2020,06,07,16,50,23.20
2020,06,07,16,51,22.00
2020,06,07,16,52,25.50
2020,06,07,16,53,15.20
2020,06,07,16,54,34.00
2020,06,07,16,55,22.80
2020,06,07,16,56,14.40
2020,06,07,16,57,22.10
2020,06,07,16,58,32.40
2020,06,07,16,59,19.60
2020,06,07,17,00,22.90
2020,06,07,17,01,16.30
2020,06,07,17,02,13.40
2020,06,07,17,03,29.00
2020,06,07,17,04,21.50
2020,06,07,17,05,13.70
2020,06,07,17,06,23.20
2020,06,07,17,07,25.70
2020,06,07,17,08,21.20
2020,06,07,17,09,13.60
2020,06,07,17,10,19.90
2020,06,07,17,11,19.10
2020,06,07,17,12,11.00
2020,06,07,17,13,13.80
2020,06,07,17,14,14.40
2020,06,07,17,15,15.20
2020,06,07,17,16,9.10
2020,06,07,17,17,4.50
2020,06,07,17,18,8.80
2020,06,07,17,19,11.10
2020,06,07,17,20,9.70
2020,06,07,17,21,10.90
2020,06,07,17,22,20.60
2020,06,07,17,23,13.00
2020,06,07,17,24,18.10
2020,06,07,17,25,13.40
2020,06,07,17,26,11.40
2020,06,07,17,27,16.90
2020,06,07,17,28,15.80
2020,06,07,17,29,8.80
2020,06,07,17,30,8.50
2020,06,07,17,31,9.10
2020,06,07,17,32,8.70
2020,06,07,17,33,16.30
2020,06,07,17,34,14.80
2020,06,07,17,35,14.00
2020,06,07,17,36,7.00
2020,06,07,17,37,10.40
2020,06,07,17,38,9.10
2020,06,07,17,39,6.90
2020,06,07,17,40,17.50
2020,06,07,17,41,13.90
2020,06,07,17,42,13.00
2020,06,07,17,43,14.70
2020,06,07,17,44,11.10
2020,06,07,17,45,6.60
2020,06,07,17,46,9.10
2020,06,07,17,47,19.90
2020,06,07,17,48,6.90
2020,06,07,17,49,11.80